Regional Weather Roundup
Issued by NWS Northern Indiana

Home | Current Version | Previous Version | Graphics & Text | Print | Product List | Glossary On
Versions: 1 2 3 4 5 6 7 8 9 10 11 12 13 14 15 16 17 18 19 20 21 22 23 24 25 26 27 28 29 30 31 32 33 34 35 36 37 38 39 40 41 42 43 44 45 46 47 48 49 50
858
ASUS43 KIWX 231610
RWRIWX

KIWX WEATHER ROUNDUP
NATIONAL WEATHER SERVICE NORTHERN INDIANA
1200 PM EDT MON APR 23 2018

NOTE: "FAIR" INDICATES FEW OR NO CLOUDS BELOW 12,000 FEET WITH NO
SIGNIFICANT WEATHER AND/OR OBSTRUCTIONS TO VISIBILITY.

* THESE STATIONS ARE NOT UNDER NWS QUALITY CONTROL. THEY ALSO MAY NOT
  REPORT WEATHER SUCH AS PRECIPITATION OR FOG.

INZ001>027-231700-
NORTHERN INDIANA

CITY           SKY/WX    TMP DP  RH WIND       PRES   REMARKS
GARY*          PTSUNNY   48  32  53 N10       30.17F
VALPARAISO     FAIR      63  34  33 E10       30.15F
MICHIGAN CITY* FAIR      61  32  33 E6        30.16F
LAPORTE*       FAIR      60  34  37 E9        30.16F
KNOX*          FAIR      61  34  36 E8        30.15S
SOUTH BEND     FAIR      59  33  37 E9        30.18F
ELKHART*       FAIR      63  36  36 E6        30.18S
GOSHEN         FAIR      63  40  42 E7        30.16F
MONTICELLO*    CLOUDY    57  34  42 E6        30.12S
LOGANSPORT*    PTSUNNY   55  36  47 E6        30.14S
ROCHESTER*     FAIR      63  37  39 E9        30.15S
WARSAW*        FAIR      63  39  42 SE7       30.15F
AUBURN*        FAIR      63  41  45 SE6       30.18F
FORT WAYNE     PTSUNNY   64  43  46 E10       30.15F
HUNTINGTON*    FAIR      63  39  40 E7        30.14F
PERU/GRISSOM   PTSUNNY   59  39  48 E8        30.12F
MARION*        FAIR      61  41  46 CALM      30.13F

$$
INZ028>050-231700-
CENTRAL INDIANA

CITY           SKY/WX    TMP DP  RH WIND       PRES   REMARKS
LAFAYETTE      CLOUDY    56  39  53 E10       30.11S
KOKOMO*        PTSUNNY   59  40  49 E12       30.13S
MUNCIE*        FAIR      64  43  46 SE10      30.12S
INDIANAPOLIS   LGT RAIN  55  49  80 SE15      30.11R

$$
MIZ043>046-050>051-056>058-064>065-071>073-077>080-231700-
SOUTHWEST LOWER MICHIGAN

CITY           SKY/WX    TMP DP  RH WIND       PRES   REMARKS
BATTLE CREEK   FAIR      63  36  36 E13       30.19F
BENTON HARBOR  FAIR      65  33  30 E12       30.16F
COLDWATER*     FAIR      63  37  37 E9        30.19S
HILLSDALE*     FAIR      61  36  39 SE9       30.20S
HOLLAND        FAIR      61  31  32 NE9       30.20F
GRAND RAPIDS   PTSUNNY   62  34  35 E9        30.21F
KALAMAZOO      FAIR      65  35  33 NE8       30.19F
STURGIS*       FAIR      64  39  39 SE10      30.17F
THREE RIVERS*  FAIR      63  35  34 E7        30.18F

$$
OHZ001>008-015>018-024>025-231700-
NORTHWEST OHIO

CITY           SKY/WX    TMP DP  RH WIND       PRES   REMARKS
WAUSEON*       FAIR      68  43  40 SE12      30.19F
DEFIANCE       FAIR      65  44  46 E9        30.18F
FINDLAY        FAIR      69  43  38 SE10      30.15F
TOLEDO EXPRESS FAIR      66  44  45 SE10G20   30.20S
TOLEDO METCALF FAIR      66  44  45 E9        30.21F
LIMA           FAIR      67  46  47 SE12      30.15F

$$
AND FOR LAKE MICHIGAN COASTAL AND OPEN LAKE BUOY OBSERVATIONS

STATION/POSITION TEMP    WIND        PRES    VSBY  WAVE
                 AIR SEA DIR/SP/G                  HT/PER
                 (F)     (DEG/KT/KT) (MB)    (MI)  (FT/S)
CALUMET HARBOR    44     330/ 14/ 18 1021.5F
MICHIGAN CITY     42      30/  7/  8   N/A
BURNS HARBOR      42     360/  4/  8 1022.0F
SAINT JOSEPH      51      20/  5/  7 1021.7
4 MI NW BRIDGMAN  44 42   20/  6/  8 1022.3          1/ 3

$$
&&




USA.gov is the U.S. government's official web portal to all federal, state and local government web resources and services.